﻿"Datetime","Wattage(W)","Voltage(V)","Current(mA)"
"2020/08/02 18:51:46","37.41","101.121","424.4765625"
"2020/08/02 18:51:47","37.275","100.983","411.7421875"
"2020/08/02 18:51:48","36.87","101.066","407.6484375"
"2020/08/02 18:51:49","37.26","101.053","411.875"
"2020/08/02 18:51:50","39.33","101.311","448.3203125"
"2020/08/02 18:51:51","37.755","101.323","414.0859375"
"2020/08/02 18:51:52","38.35","101.255","418.671875"
"2020/08/02 18:51:53","38.86","101.06","427.0390625"
"2020/08/02 18:51:54","38.22","101.107","418.2265625"
"2020/08/02 18:51:55","37.29","101.176","416.34375"
"2020/08/02 18:51:56","36.875","101.308","419.5390625"
"2020/08/02 18:51:57","37.895","101.248","419.1015625"
"2020/08/02 18:51:58","36.425","101.171","413.171875"
"2020/08/02 18:51:59","39.385","101.02","451.015625"
"2020/08/02 18:52:00","37.48","101.065","419.1484375"
"2020/08/02 18:52:01","37.52","101.125","448.6640625"
"2020/08/02 18:52:02","42.94","100.82","470.21875"
"2020/08/02 18:52:03","42.42","101.112","474.046875"
"2020/08/02 18:52:04","37.315","101.267","408.4921875"
"2020/08/02 18:52:05","40.4","101.26","446.15625"
"2020/08/02 18:52:06","37.4","101.147","424.0078125"
"2020/08/02 18:52:07","37.385","101.121","420.9921875"
"2020/08/02 18:52:08","38.85","101.1","430.6328125"
"2020/08/02 18:52:09","36.905","101.161","419.265625"
"2020/08/02 18:52:10","38.01","101.01","418.28125"
"2020/08/02 18:52:11","38.49","101.222","435.390625"
"2020/08/02 18:52:12","38","101.224","418.4921875"
"2020/08/02 18:52:13","40.245","101.233","453.1953125"
"2020/08/02 18:52:14","38.52","101.382","427.0078125"
"2020/08/02 18:52:15","39.31","101.179","431.7890625"
"2020/08/02 18:52:16","41.265","101.053","457.4921875"
"2020/08/02 18:52:17","36.77","100.977","405.265625"
"2020/08/02 18:52:18","40.27","100.978","446.78125"
"2020/08/02 18:52:19","36.985","101.268","405.921875"
"2020/08/02 18:52:20","36.96","101.292","408.3671875"
"2020/08/02 18:52:21","40.17","100.678","459.96875"
"2020/08/02 18:52:22","37.46","100.977","423.3203125"
"2020/08/02 18:52:23","37.405","101.084","423.8828125"
"2020/08/02 18:52:24","38.265","101.187","434.109375"
"2020/08/02 18:52:25","38.845","101.108","423.03125"
"2020/08/02 18:52:26","38.485","100.998","421.8984375"
"2020/08/02 18:52:27","39.755","101.079","441.8359375"
"2020/08/02 18:52:28","37.38","100.908","413.40625"
"2020/08/02 18:52:29","39.33","101.045","437.4609375"
"2020/08/02 18:52:30","36.6","100.997","402.6484375"
"2020/08/02 18:52:31","37.345","101.018","419.578125"
"2020/08/02 18:52:32","37.3","100.894","425.6171875"
"2020/08/02 18:52:33","37.66","100.835","422.8203125"
"2020/08/02 18:52:34","38.245","101.049","435.1484375"
"2020/08/02 18:52:35","40.045","101.263","440.03125"
"2020/08/02 18:52:36","39.165","101.386","429.15625"
"2020/08/02 18:52:37","39.29","101.35","449.0390625"
"2020/08/02 18:52:38","40.855","101.55","457.9609375"
"2020/08/02 18:52:39","39.295","101.663","425.7890625"
"2020/08/02 18:52:40","39.79","101.563","449.8203125"
"2020/08/02 18:52:41","38.265","101.589","433.71875"
"2020/08/02 18:52:42","42.305","101.614","461.53125"
"2020/08/02 18:52:43","41.2","101.49","464.296875"
"2020/08/02 18:52:44","39.55","101.646","435.625"
"2020/08/02 18:52:45","38.36","101.69","420.875"
"2020/08/02 18:52:46","37.85","101.261","426.8671875"
"2020/08/02 18:52:47","39.7","101.373","449.171875"
"2020/08/02 18:52:48","38.585","101.587","441.53125"
"2020/08/02 18:52:49","38.685","101.702","435.2890625"
"2020/08/02 18:52:50","39.03","101.627","444.2421875"
"2020/08/02 18:52:51","40.765","101.53","450.6640625"
"2020/08/02 18:52:52","39.29","101.674","427.5625"
"2020/08/02 18:52:53","38.5","101.472","421.6640625"
"2020/08/02 18:52:54","38.485","101.534","436.7734375"
"2020/08/02 18:52:55","40.165","101.658","460.5234375"
"2020/08/02 18:52:56","37.825","101.745","415.7890625"
"2020/08/02 18:52:57","38.295","101.684","429.875"
"2020/08/02 18:52:58","37.95","101.131","417.8125"
"2020/08/02 18:52:59","38.67","101.383","426.7734375"
"2020/08/02 18:53:00","41.265","101.424","447"
"2020/08/02 18:53:01","38.995","101.363","428.109375"
"2020/08/02 18:53:02","38.245","101.144","417.5234375"
"2020/08/02 18:53:03","37.01","101.104","406.1640625"
"2020/08/02 18:53:04","37.61","101.17","412.546875"
"2020/08/02 18:53:05","37.925","101.459","426.65625"
"2020/08/02 18:53:06","39.295","101.107","433.3203125"
"2020/08/02 18:53:07","39.715","101.293","427.453125"
"2020/08/02 18:53:08","41.15","100.828","446.03125"
"2020/08/02 18:53:09","38.895","101.377","425.0234375"
"2020/08/02 18:53:10","36.595","101.372","410.5703125"
"2020/08/02 18:53:11","38.875","101.375","405.6875"
"2020/08/02 18:53:12","38.78","101.374","425.6015625"
"2020/08/02 18:53:13","37.51","101.14","422.0234375"
"2020/08/02 18:53:14","37.005","101.011","406.734375"
"2020/08/02 18:53:15","37.43","101.148","417.8125"
"2020/08/02 18:53:16","37.89","101.093","414.953125"
"2020/08/02 18:53:17","37.26","100.699","422.0390625"
"2020/08/02 18:53:18","37.5","100.759","411.90625"
"2020/08/02 18:53:19","37.91","100.857","429.3828125"
"2020/08/02 18:53:20","39.365","101.12","440.453125"
"2020/08/02 18:53:21","38.775","100.96","433.03125"
"2020/08/02 18:53:22","42.685","100.89","476.640625"
"2020/08/02 18:53:24","37.755","101.198","430.0625"
"2020/08/02 18:53:25","38.2","101.171","418.859375"
"2020/08/02 18:53:26","37.74","100.684","414.7109375"
"2020/08/02 18:53:27","37.585","101.115","430.765625"
"2020/08/02 18:53:28","37.625","101.184","428.296875"
"2020/08/02 18:53:29","39.22","101.397","442.625"
"2020/08/02 18:53:30","34.915","101.303","389.796875"
"2020/08/02 18:53:31","38.815","101.073","429.8828125"
"2020/08/02 18:53:32","37.68","101.214","417.1015625"
"2020/08/02 18:53:33","37.945","101.386","420.90625"
"2020/08/02 18:53:34","37.565","101.25","424.5078125"
"2020/08/02 18:53:35","39.235","101.045","427.3203125"
"2020/08/02 18:53:36","37.435","101.131","411.734375"
"2020/08/02 18:53:37","37.495","101.22","429.3671875"
"2020/08/02 18:53:38","37.345","101.253","409.734375"
"2020/08/02 18:53:39","36.625","100.906","417.515625"
"2020/08/02 18:53:40","35.385","100.77","399.359375"
"2020/08/02 18:53:41","38.98","100.779","434.3046875"
"2020/08/02 18:53:42","38.93","100.933","439.3671875"
"2020/08/02 18:53:43","38.84","100.929","427.8515625"
"2020/08/02 18:53:44","38.57","100.835","426.1953125"
"2020/08/02 18:53:45","39.525","100.593","453.6328125"
"2020/08/02 18:53:46","37.98","100.673","416.0546875"
"2020/08/02 18:53:47","36.39","100.721","402.9765625"
"2020/08/02 18:53:48","39.07","101.161","426.3671875"
"2020/08/02 18:53:49","36.76","101.104","418.078125"
"2020/08/02 18:53:50","37.45","101.456","426.3125"
"2020/08/02 18:53:51","39.105","101.578","422.90625"
"2020/08/02 18:53:52","39.61","101.292","432.859375"
"2020/08/02 18:53:53","38.665","101.055","421.1796875"
"2020/08/02 18:53:54","38.44","101.418","416.8671875"
"2020/08/02 18:53:55","39.475","101.38","440.5078125"
"2020/08/02 18:53:56","38.99","101.439","431.34375"
"2020/08/02 18:53:57","38.775","101.564","432.6015625"
"2020/08/02 18:53:58","41.345","101.404","459.8984375"
"2020/08/02 18:53:59","39.765","101.358","441.40625"
"2020/08/02 18:54:00","40.265","101.405","447.1171875"
"2020/08/02 18:54:01","41.885","101.178","457.8984375"
"2020/08/02 18:54:02","39.73","100.888","435.703125"
"2020/08/02 18:54:03","39.645","101.619","441.34375"
"2020/08/02 18:54:04","39","101.92","436.1875"
"2020/08/02 18:54:05","38.76","101.912","434.0078125"
"2020/08/02 18:54:06","39.43","101.73","441.4609375"
"2020/08/02 18:54:07","39.59","101.763","435.28125"
"2020/08/02 18:54:08","39.94","101.689","439.546875"
"2020/08/02 18:54:09","37.51","101.706","421.9140625"
"2020/08/02 18:54:10","38.61","101.646","442.0390625"
"2020/08/02 18:54:11","40.25","101.526","432.4765625"
"2020/08/02 18:54:12","38.05","101.506","434.0234375"
"2020/08/02 18:54:13","37.94","101.739","414.40625"
"2020/08/02 18:54:14","37.325","101.742","407.59375"
"2020/08/02 18:54:15","36.475","101.766","405.4140625"
"2020/08/02 18:54:16","38.165","101.243","418.0859375"
"2020/08/02 18:54:17","37.05","101.653","418.3828125"
"2020/08/02 18:54:18","38.43","101.638","428.9140625"
"2020/08/02 18:54:19","37.635","101.759","416.03125"
"2020/08/02 18:54:20","38.94","101.757","436.3359375"
"2020/08/02 18:54:21","37.705","101.342","409.7109375"
"2020/08/02 18:54:22","39.06","101.423","445.359375"
"2020/08/02 18:54:23","37.73","101.617","418.6875"
"2020/08/02 18:54:24","37.395","101.427","419.671875"
"2020/08/02 18:54:25","38.87","101.695","429.4921875"
"2020/08/02 18:54:26","40.37","101.922","437"
"2020/08/02 18:54:27","37.06","101.919","405.8828125"
"2020/08/02 18:54:28","38.065","102.014","427.15625"
"2020/08/02 18:54:29","38.805","101.747","429.28125"
"2020/08/02 18:54:30","37.42","101.724","433.3203125"
"2020/08/02 18:54:31","37.69","101.483","436.2734375"
"2020/08/02 18:54:32","40.355","101.291","431.25"
"2020/08/02 18:54:33","43.545","101.484","457.3984375"
"2020/08/02 18:54:34","39.095","101.386","429.0234375"
"2020/08/02 18:54:35","38.595","101.271","430.140625"
"2020/08/02 18:54:36","37.62","101.431","449.8125"
"2020/08/02 18:54:37","37.21","101.359","418.75"
"2020/08/02 18:54:38","37.41","101.192","414.7421875"
"2020/08/02 18:54:39","37.01","101.162","409.4921875"
"2020/08/02 18:54:40","36.855","101.297","416.609375"
"2020/08/02 18:54:41","40.24","101.199","446.328125"
"2020/08/02 18:54:42","37.43","101.486","421.21875"
"2020/08/02 18:54:43","41.45","101.283","467.7890625"
"2020/08/02 18:54:44","38.55","101.331","417.53125"
"2020/08/02 18:54:45","40.15","101.289","433.859375"
"2020/08/02 18:54:46","38.48","100.636","423.3203125"
"2020/08/02 18:54:47","38.48","101.04","437.734375"
"2020/08/02 18:54:48","39.335","101.188","445.515625"
"2020/08/02 18:54:49","38.365","101.14","428.78125"
"2020/08/02 18:54:50","38.07","101.195","423.2734375"
"2020/08/02 18:54:51","39.63","101.142","456.171875"
"2020/08/02 18:54:52","38.505","101.256","430.9375"
"2020/08/02 18:54:53","40.52","101.181","450.328125"
"2020/08/02 18:54:54","41.965","101.102","461.375"
"2020/08/02 18:54:55","39.045","100.916","428.046875"
"2020/08/02 18:54:56","36.84","100.713","419.5234375"
"2020/08/02 18:54:57","39.63","100.821","441.9375"
"2020/08/02 18:54:58","40.42","100.795","453.5390625"
"2020/08/02 18:54:59","38.24","100.817","418.0390625"
"2020/08/02 18:55:01","42.425","101.174","474.0859375"
"2020/08/02 18:55:02","36.6","101.085","406.28125"
"2020/08/02 18:55:03","38.48","100.85","425.0703125"
"2020/08/02 18:55:04","42.14","101.06","453.8828125"
"2020/08/02 18:55:05","36.845","100.955","412.2890625"
"2020/08/02 18:55:06","37.48","100.803","413.7265625"
"2020/08/02 18:55:07","38.63","101.025","436.078125"
"2020/08/02 18:55:08","38.06","101.037","441.3828125"
"2020/08/02 18:55:09","42.11","100.929","459.3515625"
"2020/08/02 18:55:10","38.93","101.056","423.0625"
"2020/08/02 18:55:11","40.75","100.816","448.9453125"
"2020/08/02 18:55:12","39.9","100.939","438.4609375"
"2020/08/02 18:55:13","38.375","101.129","424.671875"
"2020/08/02 18:55:14","37.905","101.131","429.3828125"
"2020/08/02 18:55:15","38.22","100.726","418.3203125"
"2020/08/02 18:55:16","36.24","100.714","405.125"
"2020/08/02 18:55:17","40.36","100.574","446.9453125"
"2020/08/02 18:55:18","37.48","100.924","423.6328125"
"2020/08/02 18:55:19","39.03","101.183","428.953125"
"2020/08/02 18:55:20","40.85","101.042","464.3359375"
"2020/08/02 18:55:21","37.96","100.825","417.171875"
"2020/08/02 18:55:22","38.795","101.152","439.1953125"
"2020/08/02 18:55:23","41.655","101.228","460.828125"
"2020/08/02 18:55:24","37.12","101.209","411.6171875"
"2020/08/02 18:55:25","37.31","101.244","412.234375"
"2020/08/02 18:55:26","38.06","101.462","429.7890625"
"2020/08/02 18:55:27","36.87","101.145","421.8984375"
"2020/08/02 18:55:28","39.285","101.35","437.4609375"
"2020/08/02 18:55:29","37.78","100.978","418.859375"
"2020/08/02 18:55:30","37.45","101.187","411.734375"
"2020/08/02 18:55:31","37.555","100.935","423.3203125"
"2020/08/02 18:55:32","38.915","101.07","453.03125"
"2020/08/02 18:55:33","37.14","101","416.7109375"
"2020/08/02 18:55:34","37.185","101.192","409.5703125"
"2020/08/02 18:55:35","39.4","101.146","442.703125"
"2020/08/02 18:55:36","39.29","100.961","435.6328125"
"2020/08/02 18:55:37","37.845","100.85","427.2734375"
"2020/08/02 18:55:38","38.255","100.721","421.359375"
"2020/08/02 18:55:39","38.505","100.865","430.3203125"
"2020/08/02 18:55:40","37.91","100.978","420.21875"
"2020/08/02 18:55:41","39.59","100.797","435.5"
"2020/08/02 18:55:42","40.27","100.721","455.1484375"
"2020/08/02 18:55:43","38.91","100.637","432.75"
"2020/08/02 18:55:44","38.14","100.719","430.078125"
"2020/08/02 18:55:45","40.05","100.598","441.3125"
"2020/08/02 18:55:46","39.4","100.678","438.15625"
"2020/08/02 18:55:47","41.595","100.806","463.2265625"
"2020/08/02 18:55:48","39.965","100.842","454.4140625"
"2020/08/02 18:55:49","39.175","100.653","453.1640625"
"2020/08/02 18:55:50","40.265","100.815","449"
"2020/08/02 18:55:51","39.555","101.063","431.984375"
"2020/08/02 18:55:52","40.755","100.869","457.390625"
"2020/08/02 18:55:53","38.4","100.789","433.359375"
"2020/08/02 18:55:54","38.08","101.049","426.1875"
"2020/08/02 18:55:55","37.995","101.039","418.140625"
"2020/08/02 18:55:56","37.355","101.094","409.796875"
"2020/08/02 18:55:57","37.915","101.118","421.078125"
"2020/08/02 18:55:58","39.985","100.859","410.3359375"
"2020/08/02 18:55:59","39.39","101.112","427.5390625"
"2020/08/02 18:56:00","38.29","101.35","450.0703125"
"2020/08/02 18:56:01","38.77","101.425","422.265625"
"2020/08/02 18:56:02","36.69","101.272","449.90625"
"2020/08/02 18:56:03","38.34","101.265","435.015625"
"2020/08/02 18:56:04","37.325","101.309","421.546875"
"2020/08/02 18:56:05","40.145","101.574","458.5546875"
"2020/08/02 18:56:06","37.54","101.431","420.3828125"
"2020/08/02 18:56:07","39.34","101.214","447.78125"
"2020/08/02 18:56:08","40.435","101.202","446.625"
"2020/08/02 18:56:09","37.91","101.321","416.2109375"
"2020/08/02 18:56:10","36.425","101.422","422.5859375"
"2020/08/02 18:56:11","38.425","101.53","424.015625"
"2020/08/02 18:56:12","37.745","100.826","420.0703125"
"2020/08/02 18:56:13","38.09","101.294","428.3984375"
"2020/08/02 18:56:14","37.13","101.238","406.5234375"
"2020/08/02 18:56:15","38.53","101.351","431.4765625"
"2020/08/02 18:56:16","38.3","101.3","423.09375"
"2020/08/02 18:56:17","39.465","101.289","442.7265625"
"2020/08/02 18:56:18","39.87","101.225","433.5859375"
"2020/08/02 18:56:19","37.845","101.197","413.78125"
"2020/08/02 18:56:20","38.15","101.309","423.6953125"
"2020/08/02 18:56:21","37.925","101.21","428.609375"
"2020/08/02 18:56:22","40.36","101.128","443.828125"
"2020/08/02 18:56:23","40","101.114","441.6015625"
"2020/08/02 18:56:24","38.445","101.065","421.2109375"
"2020/08/02 18:56:25","40.005","101.159","445.21875"
"2020/08/02 18:56:26","38.83","101.016","436.4609375"
"2020/08/02 18:56:27","37.63","101.054","413.390625"
"2020/08/02 18:56:28","38.375","101.164","425.6640625"
"2020/08/02 18:56:29","37.045","101.088","407.4765625"
